{"data":{"norad_id":53398,"epoch":"2026-09-20T03:20:22.642080Z","epoch_age_seconds":106465,"freshness":"FRESH","line1":"1 53398U 22097L   26263.13915095  .00001494  00000+0  53715-4 0  9992","line2":"2 53398  53.1606 323.3175 0001048  88.3608 271.7515 15.35404201227971","mean_motion":15.35404201,"eccentricity":0.0001048,"inclination_deg":53.1606,"raan_deg":323.3175,"arg_perigee_deg":88.3608,"mean_anomaly_deg":271.7515,"bstar":5.3715e-5,"rev_number":22797,"period_min":93.786378796029,"perigee_km":459.0035626316,"apogee_km":460.43677749444,"semimajor_km":6837.857170063,"source":"CELESTRAK","updated_at":"2026-09-20T09:00:40.224820Z"}}